,,,PA_Meas_PMT16A,,PR_Meas_QMR101_102,,RH_Meas_QMH101,,SR_Meas_QMS101,,TA_Meas_QMH101,,GenWind,,GenWind,
date,time,status,PA,status,PR,status,RH,status,SR,status,TA,status,DirAvg,status,SpdAvg,
2009-02-28, 00:00:04,VALID,1008.3,VALID,0,VALID,92.2411,VALID,0,VALID,24.2786,VALID,356,VALID,0,
2009-02-28, 00:01:04,VALID,1008.3,VALID,0,VALID,92.3021,VALID,0,VALID,24.2963,VALID,356,VALID,0,
2009-02-28, 00:02:04,VALID,1008.25,VALID,0,VALID,92.3555,VALID,0,VALID,24.2981,VALID,356,VALID,0,
2009-02-28, 00:03:04,VALID,1008.25,VALID,0,VALID,92.3936,VALID,0,VALID,24.2963,VALID,356,VALID,0,
2009-02-28, 00:04:04,VALID,1008.22,VALID,0,VALID,92.3936,VALID,0,VALID,24.2981,VALID,356,VALID,0,
2009-02-28, 00:05:04,VALID,1008.23,VALID,0,VALID,92.386,VALID,0,VALID,24.2786,VALID,356,VALID,0,
2009-02-28, 00:06:04,VALID,1008.18,VALID,0,VALID,92.4165,VALID,0,VALID,24.2786,VALID,356,VALID,0,
2009-02-28, 00:07:04,VALID,1008.21,VALID,0,VALID,92.4089,VALID,0,VALID,24.2378,VALID,356,VALID,0,
2009-02-28, 00:08:05,VALID,1008.19,VALID,0,VALID,92.3784,VALID,0,VALID,24.2378,VALID,356,VALID,0,
2009-02-28, 00:09:05,VALID,1008.15,VALID,0,VALID,92.3631,VALID,0,VALID,24.2396,VALID,356,VALID,0,
2009-02-28, 00:10:05,VALID,1008.15,VALID,0,VALID,92.3708,VALID,0,VALID,24.1988,VALID,356,VALID,0,
2009-02-28, 00:11:05,VALID,1008.16,VALID,0,VALID,92.386,VALID,0,VALID,24.2396,VALID,356,VALID,0,
2009-02-28, 00:12:05,VALID,1008.14,VALID,0,VALID,92.4089,VALID,0,VALID,24.1988,VALID,356,VALID,0,
2009-02-28, 00:13:05,VALID,1008.13,VALID,0,VALID,92.4013,VALID,0,VALID,24.2007,VALID,356,VALID,0,
2009-02-28, 00:14:05,VALID,1008.12,VALID,0,VALID,92.4165,VALID,0,VALID,24.2007,VALID,356,VALID,0,
2009-02-28, 00:15:05,VALID,1008.09,VALID,0,VALID,92.447,VALID,0,VALID,24.1812,VALID,356,VALID,0,
2009-02-28, 00:16:05,VALID,1008.08,VALID,0,VALID,92.4699,VALID,0,VALID,24.1812,VALID,356,VALID,0,
2009-02-28, 00:17:05,VALID,1008.08,VALID,0,VALID,92.5156,VALID,0,VALID,24.1617,VALID,356,VALID,0,
2009-02-28, 00:18:05,VALID,1008.06,VALID,0,VALID,92.5461,VALID,0,VALID,24.1617,VALID,356,VALID,0,
2009-02-28, 00:19:05,VALID,1008.07,VALID,0,VALID,92.5461,VALID,0,VALID,24.1422,VALID,356,VALID,0,
2009-02-28, 00:20:05,VALID,1008.06,VALID,0,VALID,92.5766,VALID,0,VALID,24.1227,VALID,356,VALID,0,
2009-02-28, 00:21:05,VALID,1008.08,VALID,0,VALID,92.5843,VALID,0,VALID,24.0819,VALID,356,VALID,0,
2009-02-28, 00:22:05,VALID,1008.05,VALID,0,VALID,92.6071,VALID,0,VALID,24.0819,VALID,356,VALID,0,
2009-02-28, 00:23:05,VALID,1008.03,VALID,0,VALID,92.6758,VALID,0,VALID,24.1032,VALID,356,VALID,0,
2009-02-28, 00:24:05,VALID,1008.04,VALID,0,VALID,92.6834,VALID,0,VALID,24.1032,VALID,356,VALID,0,
2009-02-28, 00:25:05,VALID,1008.04,VALID,0,VALID,92.7139,VALID,0,VALID,24.1032,VALID,356,VALID,0,
2009-02-28, 00:26:05,VALID,1008.02,VALID,0,VALID,92.752,VALID,0,VALID,24.1032,VALID,356,VALID,0,
2009-02-28, 00:27:05,VALID,1008.04,VALID,0,VALID,92.7902,VALID,0.105969,VALID,24.1227,VALID,356,VALID,0,
2009-02-28, 00:28:05,VALID,1007.99,VALID,0,VALID,92.8283,VALID,0.105969,VALID,24.1209,VALID,356,VALID,0,
2009-02-28, 00:29:05,VALID,1007.97,VALID,0,VALID,92.8359,VALID,0.105969,VALID,24.1014,VALID,356,VALID,0,
2009-02-28, 00:30:05,VALID,1007.97,VALID,0,VALID,92.8588,VALID,0.105969,VALID,24.1014,VALID,356,VALID,0,
2009-02-28, 00:31:05,VALID,1007.98,VALID,0,VALID,92.8512,VALID,0,VALID,24.1032,VALID,356,VALID,0,
2009-02-28, 00:32:05,VALID,1007.98,VALID,0,VALID,92.8436,VALID,0,VALID,24.1032,VALID,356,VALID,0,
2009-02-28, 00:33:05,VALID,1007.98,VALID,0,VALID,92.8588,VALID,0,VALID,24.0819,VALID,356,VALID,0,
2009-02-28, 00:34:05,VALID,1008.02,VALID,0,VALID,92.8664,VALID,0,VALID,24.1032,VALID,356,VALID,0,
2009-02-28, 00:35:05,VALID,1008.02,VALID,0,VALID,92.8512,VALID,0,VALID,24.0837,VALID,356,VALID,0,
2009-02-28, 00:36:05,VALID,1008,VALID,0,VALID,92.8588,VALID,0,VALID,24.0624,VALID,356,VALID,0,
2009-02-28, 00:37:05,VALID,1007.98,VALID,0,VALID,92.8741,VALID,0,VALID,24.0837,VALID,356,VALID,0,
2009-02-28, 00:38:05,VALID,1007.98,VALID,0,VALID,92.8817,VALID,0,VALID,24.0819,VALID,356,VALID,0,
2009-02-28, 00:39:05,VALID,1007.99,VALID,0,VALID,92.8817,VALID,0.105969,VALID,24.0837,VALID,356,VALID,0,
2009-02-28, 00:40:05,VALID,1007.98,VALID,0,VALID,92.8741,VALID,0,VALID,24.0837,VALID,356,VALID,0,
2009-02-28, 00:41:05,VALID,1007.97,VALID,0,VALID,92.8893,VALID,0,VALID,24.0643,VALID,356,VALID,0,
2009-02-28, 00:42:05,VALID,1007.95,VALID,0,VALID,92.8741,VALID,0.105969,VALID,24.0819,VALID,356,VALID,0,
2009-02-28, 00:43:05,VALID,1007.94,VALID,0,VALID,92.8969,VALID,0.105969,VALID,24.0819,VALID,356,VALID,0,
2009-02-28, 00:44:05,VALID,1007.93,VALID,0,VALID,92.9274,VALID,0.105969,VALID,24.1014,VALID,356,VALID,0,
2009-02-28, 00:45:05,VALID,1007.91,VALID,0,VALID,92.9351,VALID,0.105969,VALID,24.0606,VALID,356,VALID,0,
2009-02-28, 00:46:05,VALID,1007.93,VALID,0,VALID,92.9579,VALID,0.105969,VALID,24.1014,VALID,356,VALID,0,
2009-02-28, 00:47:05,VALID,1007.92,VALID,0,VALID,92.9579,VALID,0.105969,VALID,24.0996,VALID,356,VALID,0,
2009-02-28, 00:48:05,VALID,1007.93,VALID,0,VALID,92.9732,VALID,0.105969,VALID,24.1209,VALID,356,VALID,0,
2009-02-28, 00:49:05,VALID,1007.9,VALID,0,VALID,92.9732,VALID,0.105969,VALID,24.1404,VALID,356,VALID,0,
2009-02-28, 00:50:05,VALID,1007.86,VALID,0,VALID,92.9808,VALID,0.105969,VALID,24.1209,VALID,356,VALID,0,
2009-02-28, 00:51:05,VALID,1007.82,VALID,0,VALID,92.9656,VALID,0.105969,VALID,24.1191,VALID,356,VALID,0,
2009-02-28, 00:52:05,VALID,1007.79,VALID,0,VALID,92.9503,VALID,0.105969,VALID,24.1404,VALID,356,VALID,0,
2009-02-28, 00:53:05,VALID,1007.79,VALID,0,VALID,92.9351,VALID,0.105969,VALID,24.1404,VALID,356,VALID,0,
2009-02-28, 00:54:05,VALID,1007.75,VALID,0,VALID,92.9579,VALID,0.105969,VALID,24.1404,VALID,356,VALID,0,
2009-02-28, 00:55:05,VALID,1007.74,VALID,0,VALID,92.9274,VALID,0.105969,VALID,24.1385,VALID,356,VALID,0,
2009-02-28, 00:56:05,VALID,1007.73,VALID,0,VALID,92.9427,VALID,0.105969,VALID,24.1385,VALID,356,VALID,0,
2009-02-28, 00:57:05,VALID,1007.73,VALID,0,VALID,92.9198,VALID,0,VALID,24.1617,VALID,356,VALID,0,
2009-02-28, 00:58:05,VALID,1007.73,VALID,0,VALID,92.9122,VALID,0,VALID,24.1617,VALID,356,VALID,0,
2009-02-28, 00:59:05,VALID,1007.72,VALID,0,VALID,92.9046,VALID,0,VALID,24.1812,VALID,356,VALID,0,
2009-02-28, 01:00:05,VALID,1007.69,VALID,0,VALID,92.8893,VALID,0,VALID,24.1812,VALID,356,VALID,0,
2009-02-28, 01:01:05,VALID,1007.67,VALID,0,VALID,92.8817,VALID,0,VALID,24.1599,VALID,356,VALID,0,
2009-02-28, 01:02:05,VALID,1007.63,VALID,0,VALID,92.8283,VALID,0,VALID,24.1617,VALID,356,VALID,0,
2009-02-28, 01:03:05,VALID,1007.61,VALID,0,VALID,92.8054,VALID,0,VALID,24.1617,VALID,356,VALID,0,
2009-02-28, 01:04:05,VALID,1007.6,VALID,0,VALID,92.7673,VALID,0,VALID,24.1422,VALID,356,VALID,0,
2009-02-28, 01:05:05,VALID,1007.58,VALID,0,VALID,92.7749,VALID,0,VALID,24.1617,VALID,356,VALID,0,
2009-02-28, 01:06:05,VALID,1007.58,VALID,0,VALID,92.7673,VALID,0,VALID,24.1617,VALID,356,VALID,0,
2009-02-28, 01:07:05,VALID,1007.59,VALID,0,VALID,92.7825,VALID,0,VALID,24.1617,VALID,356,VALID,0,
2009-02-28, 01:08:05,VALID,1007.57,VALID,0,VALID,92.7673,VALID,0,VALID,24.1617,VALID,356,VALID,0,
2009-02-28, 01:09:05,VALID,1007.58,VALID,0,VALID,92.7292,VALID,0,VALID,24.1422,VALID,356,VALID,0,
2009-02-28, 01:10:05,VALID,1007.59,VALID,0,VALID,92.752,VALID,0,VALID,24.1422,VALID,356,VALID,0,
2009-02-28, 01:11:05,VALID,1007.58,VALID,0,VALID,92.7215,VALID,0,VALID,24.1422,VALID,356,VALID,0,
2009-02-28, 01:12:05,VALID,1007.59,VALID,0,VALID,92.7139,VALID,0,VALID,24.1422,VALID,356,VALID,0,
2009-02-28, 01:13:05,VALID,1007.61,VALID,0,VALID,92.7139,VALID,0,VALID,24.1032,VALID,356,VALID,0,
2009-02-28, 01:14:05,VALID,1007.61,VALID,0,VALID,92.7139,VALID,0,VALID,24.1032,VALID,356,VALID,0,
2009-02-28, 01:15:05,VALID,1007.58,VALID,0,VALID,92.7368,VALID,0,VALID,24.1032,VALID,356,VALID,0,
2009-02-28, 01:16:05,VALID,1007.57,VALID,0,VALID,92.7597,VALID,0,VALID,24.0819,VALID,356,VALID,0,
2009-02-28, 01:17:05,VALID,1007.59,VALID,0,VALID,92.7673,VALID,0,VALID,24.0819,VALID,356,VALID,0,
2009-02-28, 01:18:05,VALID,1007.56,VALID,0,VALID,92.7825,VALID,0,VALID,24.1032,VALID,356,VALID,0,
2009-02-28, 01:19:05,VALID,1007.58,VALID,0,VALID,92.7902,VALID,0,VALID,24.1051,VALID,356,VALID,0,
2009-02-28, 01:20:05,VALID,1007.57,VALID,0,VALID,92.8436,VALID,0,VALID,24.0837,VALID,356,VALID,0,
2009-02-28, 01:21:05,VALID,1007.54,VALID,0,VALID,92.8512,VALID,0,VALID,24.0837,VALID,356,VALID,0,
2009-02-28, 01:22:05,VALID,1007.53,VALID,0,VALID,92.8512,VALID,0,VALID,24.0837,VALID,357,VALID,0,
2009-02-28, 01:23:05,VALID,1007.52,VALID,0,VALID,92.8741,VALID,0,VALID,24.1051,VALID,3,VALID,0,
2009-02-28, 01:24:05,VALID,1007.49,VALID,0,VALID,92.8741,VALID,0,VALID,24.0643,VALID,3,VALID,0,
2009-02-28, 01:25:05,VALID,1007.47,VALID,0,VALID,92.8512,VALID,0,VALID,24.0643,VALID,3,VALID,0,
2009-02-28, 01:26:05,VALID,1007.46,VALID,0,VALID,92.8741,VALID,0,VALID,24.0643,VALID,3,VALID,0,
2009-02-28, 01:27:05,VALID,1007.45,VALID,0,VALID,92.9046,VALID,0,VALID,24.0643,VALID,3,VALID,0,
2009-02-28, 01:28:05,VALID,1007.42,VALID,0,VALID,92.9046,VALID,0,VALID,24.0643,VALID,3,VALID,0,
2009-02-28, 01:29:05,VALID,1007.41,VALID,0,VALID,92.9122,VALID,0,VALID,24.0643,VALID,3,VALID,0,
2009-02-28, 01:30:05,VALID,1007.4,VALID,0,VALID,92.9351,VALID,0,VALID,24.0643,VALID,3,VALID,0,
2009-02-28, 01:31:05,VALID,1007.39,VALID,0,VALID,92.9198,VALID,0,VALID,24.0429,VALID,3,VALID,0,
2009-02-28, 01:32:05,VALID,1007.39,VALID,0,VALID,92.9198,VALID,0,VALID,24.0429,VALID,3,VALID,0,
2009-02-28, 01:33:05,VALID,1007.4,VALID,0,VALID,92.9732,VALID,0,VALID,24.0643,VALID,3,VALID,0,
2009-02-28, 01:34:05,VALID,1007.38,VALID,0,VALID,92.9503,VALID,0,VALID,24.0448,VALID,3,VALID,0,
2009-02-28, 01:35:05,VALID,1007.37,VALID,0,VALID,92.9579,VALID,0,VALID,24.0448,VALID,3,VALID,0,
2009-02-28, 01:36:05,VALID,1007.38,VALID,0,VALID,92.9732,VALID,0,VALID,24.0429,VALID,3,VALID,0,
2009-02-28, 01:37:05,VALID,1007.37,VALID,0,VALID,93.0037,VALID,0,VALID,24.0429,VALID,3,VALID,0,
2009-02-28, 01:38:05,VALID,1007.35,VALID,0,VALID,92.9884,VALID,0,VALID,24.0837,VALID,3,VALID,0,
2009-02-28, 01:39:05,VALID,1007.3,VALID,0,VALID,92.9808,VALID,0,VALID,24.0837,VALID,3,VALID,0,
2009-02-28, 01:40:05,VALID,1007.31,VALID,0,VALID,92.9656,VALID,0,VALID,24.0643,VALID,3,VALID,0,
2009-02-28, 01:41:05,VALID,1007.27,VALID,0,VALID,92.9427,VALID,0,VALID,24.0448,VALID,3,VALID,0,
2009-02-28, 01:42:05,VALID,1007.26,VALID,0,VALID,92.9122,VALID,0,VALID,24.0448,VALID,3,VALID,0,
2009-02-28, 01:43:05,VALID,1007.25,VALID,0,VALID,92.8969,VALID,0,VALID,24.0235,VALID,3,VALID,0,
2009-02-28, 01:44:05,VALID,1007.24,VALID,0,VALID,92.9122,VALID,0,VALID,24.0253,VALID,3,VALID,0,
2009-02-28, 01:45:05,VALID,1007.23,VALID,0,VALID,92.9046,VALID,0,VALID,24.0253,VALID,3,VALID,0,
2009-02-28, 01:46:05,VALID,1007.23,VALID,0,VALID,92.8741,VALID,0,VALID,24.0058,VALID,3,VALID,0,
2009-02-28, 01:47:05,VALID,1007.21,VALID,0,VALID,92.8817,VALID,0,VALID,24.0058,VALID,3,VALID,0,
2009-02-28, 01:48:05,VALID,1007.15,VALID,0,VALID,92.8817,VALID,0,VALID,24.0058,VALID,3,VALID,0,
2009-02-28, 01:49:05,VALID,1007.16,VALID,0,VALID,92.8436,VALID,0,VALID,24.0076,VALID,3,VALID,0,
2009-02-28, 01:50:05,VALID,1007.14,VALID,0,VALID,92.8512,VALID,0,VALID,23.9863,VALID,3,VALID,0,
2009-02-28, 01:51:05,VALID,1007.16,VALID,0,VALID,92.8359,VALID,0,VALID,23.9863,VALID,3,VALID,0,
2009-02-28, 01:52:05,VALID,1007.11,VALID,0,VALID,92.8664,VALID,0,VALID,23.965,VALID,3,VALID,0,
2009-02-28, 01:53:05,VALID,1007.12,VALID,0,VALID,92.8664,VALID,0,VALID,23.965,VALID,3,VALID,0,
2009-02-28, 01:54:05,VALID,1007.08,VALID,0,VALID,92.8893,VALID,0,VALID,23.9863,VALID,3,VALID,0,
2009-02-28, 01:55:05,VALID,1007.11,VALID,0,VALID,92.9046,VALID,0,VALID,23.9863,VALID,3,VALID,0,
2009-02-28, 01:56:05,VALID,1007.09,VALID,0,VALID,92.8817,VALID,0,VALID,23.9455,VALID,3,VALID,0,
2009-02-28, 01:57:05,VALID,1007.09,VALID,0,VALID,92.8969,VALID,0,VALID,23.9863,VALID,3,VALID,0,
2009-02-28, 01:58:05,VALID,1007.11,VALID,0,VALID,92.9274,VALID,0,VALID,23.9668,VALID,3,VALID,0,
2009-02-28, 01:59:05,VALID,1007.07,VALID,0,VALID,92.9198,VALID,0,VALID,23.9668,VALID,3,VALID,0,
2009-02-28, 02:00:05,VALID,1007.06,VALID,0,VALID,92.9122,VALID,0,VALID,23.9473,VALID,3,VALID,0,
2009-02-28, 02:01:05,VALID,1007.06,VALID,0,VALID,92.9274,VALID,0,VALID,23.9473,VALID,3,VALID,0,
2009-02-28, 02:02:05,VALID,1007.06,VALID,0,VALID,92.9427,VALID,0,VALID,23.9278,VALID,3,VALID,0,
2009-02-28, 02:03:05,VALID,1007.05,VALID,0,VALID,92.9198,VALID,0,VALID,23.9278,VALID,3,VALID,0,
2009-02-28, 02:04:05,VALID,1007.05,VALID,0,VALID,92.9351,VALID,0,VALID,23.9278,VALID,3,VALID,0,
2009-02-28, 02:05:05,VALID,1007.06,VALID,0,VALID,92.9656,VALID,0,VALID,23.9084,VALID,3,VALID,0,
2009-02-28, 02:06:05,VALID,1007.04,VALID,0,VALID,92.9808,VALID,0,VALID,23.9084,VALID,3,VALID,0,
2009-02-28, 02:07:05,VALID,1007.04,VALID,0,VALID,92.9808,VALID,0,VALID,23.8889,VALID,3,VALID,0,
2009-02-28, 02:08:05,VALID,1007.03,VALID,0,VALID,92.9961,VALID,0,VALID,23.8889,VALID,3,VALID,0,
2009-02-28, 02:09:05,VALID,1007.03,VALID,0,VALID,93.0037,VALID,0,VALID,23.8694,VALID,3,VALID,0,
2009-02-28, 02:10:05,VALID,1007.02,VALID,0,VALID,92.9961,VALID,0,VALID,23.8499,VALID,3,VALID,0,
2009-02-28, 02:11:05,VALID,1007.02,VALID,0,VALID,93.0266,VALID,0,VALID,23.8499,VALID,3,VALID,0,
2009-02-28, 02:12:05,VALID,1007.01,VALID,0,VALID,93.0342,VALID,0,VALID,23.8499,VALID,3,VALID,0,
2009-02-28, 02:13:05,VALID,1007.02,VALID,0,VALID,93.0189,VALID,0,VALID,23.8091,VALID,3,VALID,0,
2009-02-28, 02:14:05,VALID,1007.01,VALID,0,VALID,93.0189,VALID,0,VALID,23.8304,VALID,3,VALID,0,
2009-02-28, 02:15:05,VALID,1006.97,VALID,0,VALID,93.0571,VALID,0,VALID,23.8304,VALID,3,VALID,0,
2009-02-28, 02:16:05,VALID,1006.97,VALID,0,VALID,93.0647,VALID,0,VALID,23.8304,VALID,3,VALID,0,
2009-02-28, 02:17:05,VALID,1006.97,VALID,0,VALID,93.0723,VALID,0,VALID,23.7914,VALID,3,VALID,0,
2009-02-28, 02:18:05,VALID,1006.95,VALID,0,VALID,93.1028,VALID,0,VALID,23.8109,VALID,3,VALID,0,
2009-02-28, 02:19:05,VALID,1006.93,VALID,0,VALID,93.1105,VALID,0,VALID,23.8109,VALID,3,VALID,0,
2009-02-28, 02:20:05,VALID,1006.94,VALID,0,VALID,93.1333,VALID,0,VALID,23.8109,VALID,3,VALID,0,
2009-02-28, 02:21:05,VALID,1006.94,VALID,0,VALID,93.141,VALID,0,VALID,23.8109,VALID,3,VALID,0,
2009-02-28, 02:22:05,VALID,1006.93,VALID,0,VALID,93.1333,VALID,0,VALID,23.7914,VALID,3,VALID,0,
2009-02-28, 02:23:05,VALID,1006.9,VALID,0,VALID,93.141,VALID,0,VALID,23.7914,VALID,3,VALID,0,
2009-02-28, 02:24:05,VALID,1006.9,VALID,0,VALID,93.1486,VALID,0,VALID,23.7914,VALID,3,VALID,0,
2009-02-28, 02:25:05,VALID,1006.94,VALID,0,VALID,93.1333,VALID,0,VALID,23.7932,VALID,3,VALID,0,
2009-02-28, 02:26:05,VALID,1006.91,VALID,0,VALID,93.1333,VALID,0,VALID,23.772,VALID,3,VALID,0,
2009-02-28, 02:27:05,VALID,1006.9,VALID,0,VALID,93.1333,VALID,0,VALID,23.7525,VALID,3,VALID,0,
2009-02-28, 02:28:05,VALID,1006.9,VALID,0,VALID,93.1486,VALID,0,VALID,23.733,VALID,3,VALID,0,
2009-02-28, 02:29:05,VALID,1006.91,VALID,0,VALID,93.1867,VALID,0,VALID,23.733,VALID,3,VALID,0,
2009-02-28, 02:30:05,VALID,1006.95,VALID,0,VALID,93.1791,VALID,0,VALID,23.733,VALID,3,VALID,0,
2009-02-28, 02:31:05,VALID,1006.92,VALID,0,VALID,93.2172,VALID,0,VALID,23.7135,VALID,3,VALID,0,
2009-02-28, 02:32:05,VALID,1006.92,VALID,0,VALID,93.1943,VALID,0,VALID,23.6922,VALID,3,VALID,0,
2009-02-28, 02:33:05,VALID,1006.9,VALID,0,VALID,93.2401,VALID,0,VALID,23.7135,VALID,3,VALID,0,
2009-02-28, 02:34:05,VALID,1006.9,VALID,0,VALID,93.263,VALID,0,VALID,23.6922,VALID,3,VALID,0,
2009-02-28, 02:35:05,VALID,1006.9,VALID,0,VALID,93.2706,VALID,0,VALID,23.6745,VALID,3,VALID,0,
2009-02-28, 02:36:05,VALID,1006.88,VALID,0,VALID,93.2706,VALID,0,VALID,23.6727,VALID,3,VALID,0,
2009-02-28, 02:37:05,VALID,1006.91,VALID,0,VALID,93.2858,VALID,0,VALID,23.6745,VALID,3,VALID,0,
2009-02-28, 02:38:05,VALID,1006.88,VALID,0,VALID,93.3011,VALID,0,VALID,23.6745,VALID,3,VALID,0,
2009-02-28, 02:39:05,VALID,1006.87,VALID,0,VALID,93.3087,VALID,0,VALID,23.6745,VALID,3,VALID,0,
2009-02-28, 02:40:05,VALID,1006.87,VALID,0,VALID,93.3087,VALID,0,VALID,23.6338,VALID,3,VALID,0,
2009-02-28, 02:41:05,VALID,1006.83,VALID,0,VALID,93.324,VALID,0,VALID,23.6532,VALID,3,VALID,0,
2009-02-28, 02:42:05,VALID,1006.82,VALID,0,VALID,93.3392,VALID,0,VALID,23.655,VALID,3,VALID,0,
2009-02-28, 02:43:05,VALID,1006.79,VALID,0,VALID,93.3697,VALID,0,VALID,23.6338,VALID,3,VALID,0,
2009-02-28, 02:44:05,VALID,1006.79,VALID,0,VALID,93.3697,VALID,0,VALID,23.6143,VALID,3,VALID,0,
2009-02-28, 02:45:05,VALID,1006.77,VALID,0,VALID,93.3545,VALID,0,VALID,23.6143,VALID,3,VALID,0,
2009-02-28, 02:46:05,VALID,1006.78,VALID,0,VALID,93.3926,VALID,0,VALID,23.6356,VALID,3,VALID,0,
2009-02-28, 02:47:05,VALID,1006.77,VALID,0,VALID,93.385,VALID,0,VALID,23.6356,VALID,3,VALID,0,
2009-02-28, 02:48:05,VALID,1006.77,VALID,0,VALID,93.3926,VALID,0,VALID,23.6161,VALID,3,VALID,0,
2009-02-28, 02:49:05,VALID,1006.8,VALID,0,VALID,93.3926,VALID,0,VALID,23.6161,VALID,3,VALID,0,
2009-02-28, 02:50:04,VALID,1006.8,VALID,0,VALID,93.4079,VALID,0,VALID,23.5948,VALID,3,VALID,0,
2009-02-28, 02:51:04,VALID,1006.8,VALID,0,VALID,93.4307,VALID,0,VALID,23.5966,VALID,3,VALID,0,
2009-02-28, 02:52:04,VALID,1006.79,VALID,0,VALID,93.4384,VALID,0,VALID,23.5948,VALID,3,VALID,0,
2009-02-28, 02:53:04,VALID,1006.78,VALID,0,VALID,93.4384,VALID,0,VALID,23.5966,VALID,3,VALID,0,
2009-02-28, 02:54:04,VALID,1006.8,VALID,0,VALID,93.4536,VALID,0,VALID,23.6161,VALID,3,VALID,0,
2009-02-28, 02:55:04,VALID,1006.74,VALID,0,VALID,93.4612,VALID,0,VALID,23.5966,VALID,3,VALID,0,
2009-02-28, 02:56:04,VALID,1006.76,VALID,0,VALID,93.4689,VALID,0,VALID,23.5966,VALID,3,VALID,0,
2009-02-28, 02:57:04,VALID,1006.74,VALID,0,VALID,93.4765,VALID,0,VALID,23.5753,VALID,3,VALID,0,
2009-02-28, 02:58:04,VALID,1006.7,VALID,0,VALID,93.4917,VALID,0,VALID,23.5966,VALID,3,VALID,0,
2009-02-28, 02:59:04,VALID,1006.7,VALID,0,VALID,93.507,VALID,0,VALID,23.6161,VALID,3,VALID,0,
2009-02-28, 03:00:04,VALID,1006.71,VALID,0,VALID,93.507,VALID,0,VALID,23.5948,VALID,3,VALID,0,
2009-02-28, 03:01:04,VALID,1006.66,VALID,0,VALID,93.5299,VALID,0,VALID,23.5753,VALID,3,VALID,0,
2009-02-28, 03:02:04,VALID,1006.65,VALID,0,VALID,93.5222,VALID,0,VALID,23.5948,VALID,3,VALID,0,
2009-02-28, 03:03:04,VALID,1006.67,VALID,0,VALID,93.5451,VALID,0,VALID,23.5753,VALID,3,VALID,0,
2009-02-28, 03:04:04,VALID,1006.67,VALID,0,VALID,93.5451,VALID,0,VALID,23.5966,VALID,3,VALID,0,
2009-02-28, 03:05:04,VALID,1006.66,VALID,0,VALID,93.5451,VALID,0,VALID,23.5753,VALID,3,VALID,0,
2009-02-28, 03:06:04,VALID,1006.63,VALID,0,VALID,93.5451,VALID,0,VALID,23.5753,VALID,3,VALID,0,
2009-02-28, 03:07:04,VALID,1006.66,VALID,0,VALID,93.5604,VALID,0,VALID,23.5771,VALID,3,VALID,0,
2009-02-28, 03:08:04,VALID,1006.62,VALID,0,VALID,93.5527,VALID,0,VALID,23.5558,VALID,3,VALID,0,
2009-02-28, 03:09:04,VALID,1006.62,VALID,0,VALID,93.5604,VALID,0,VALID,23.5363,VALID,3,VALID,0,
2009-02-28, 03:10:04,VALID,1006.62,VALID,0,VALID,93.5527,VALID,0,VALID,23.5363,VALID,3,VALID,0,
2009-02-28, 03:11:04,VALID,1006.64,VALID,0,VALID,93.5451,VALID,0,VALID,23.5169,VALID,3,VALID,0,
2009-02-28, 03:12:04,VALID,1006.64,VALID,0,VALID,93.5604,VALID,0,VALID,23.4974,VALID,3,VALID,0,
2009-02-28, 03:13:04,VALID,1006.62,VALID,0,VALID,93.5909,VALID,0,VALID,23.5186,VALID,3,VALID,0,
2009-02-28, 03:14:04,VALID,1006.64,VALID,0,VALID,93.5909,VALID,0,VALID,23.5186,VALID,3,VALID,0,
2009-02-28, 03:15:04,VALID,1006.64,VALID,0,VALID,93.5909,VALID,0,VALID,23.4992,VALID,3,VALID,0,
2009-02-28, 03:16:04,VALID,1006.61,VALID,0,VALID,93.6061,VALID,0,VALID,23.4779,VALID,3,VALID,0,
2009-02-28, 03:17:04,VALID,1006.61,VALID,0,VALID,93.6137,VALID,0,VALID,23.4797,VALID,3,VALID,0,
2009-02-28, 03:18:04,VALID,1006.6,VALID,0,VALID,93.6137,VALID,0,VALID,23.4584,VALID,3,VALID,0,
2009-02-28, 03:19:04,VALID,1006.6,VALID,0,VALID,93.6214,VALID,0,VALID,23.4584,VALID,3,VALID,0,
2009-02-28, 03:20:04,VALID,1006.58,VALID,0,VALID,93.6366,VALID,0,VALID,23.4584,VALID,3,VALID,0,
2009-02-28, 03:21:04,VALID,1006.55,VALID,0,VALID,93.6366,VALID,0,VALID,23.4584,VALID,3,VALID,0,
2009-02-28, 03:22:04,VALID,1006.55,VALID,0,VALID,93.6366,VALID,0,VALID,23.4602,VALID,3,VALID,0,
2009-02-28, 03:23:04,VALID,1006.55,VALID,0,VALID,93.629,VALID,0,VALID,23.4389,VALID,3,VALID,0,
2009-02-28, 03:24:04,VALID,1006.58,VALID,0,VALID,93.6442,VALID,0,VALID,23.4602,VALID,3,VALID,0,
2009-02-28, 03:25:04,VALID,1006.53,VALID,0,VALID,93.6519,VALID,0,VALID,23.4602,VALID,3,VALID,0,
2009-02-28, 03:26:04,VALID,1006.54,VALID,0,VALID,93.6748,VALID,0,VALID,23.4602,VALID,3,VALID,0,
2009-02-28, 03:27:04,VALID,1006.53,VALID,0,VALID,93.6748,VALID,0,VALID,23.4194,VALID,3,VALID,0,
2009-02-28, 03:28:04,VALID,1006.54,VALID,0,VALID,93.6824,VALID,0,VALID,23.4407,VALID,3,VALID,0,
2009-02-28, 03:29:04,VALID,1006.52,VALID,0,VALID,93.6824,VALID,0,VALID,23.4407,VALID,3,VALID,0,
2009-02-28, 03:30:04,VALID,1006.55,VALID,0,VALID,93.6976,VALID,0,VALID,23.4,VALID,3,VALID,0,
2009-02-28, 03:31:04,VALID,1006.54,VALID,0,VALID,93.6824,VALID,0,VALID,23.4,VALID,3,VALID,0,
2009-02-28, 03:32:04,VALID,1006.54,VALID,0,VALID,93.7053,VALID,0,VALID,23.4017,VALID,3,VALID,0,
2009-02-28, 03:33:04,VALID,1006.55,VALID,0,VALID,93.7281,VALID,0,VALID,23.4,VALID,3,VALID,0,
2009-02-28, 03:34:04,VALID,1006.58,VALID,0,VALID,93.6976,VALID,0,VALID,23.3805,VALID,3,VALID,0,
2009-02-28, 03:35:04,VALID,1006.57,VALID,0,VALID,93.7053,VALID,0,VALID,23.3805,VALID,3,VALID,0,
2009-02-28, 03:36:04,VALID,1006.6,VALID,0,VALID,93.7358,VALID,0,VALID,23.3823,VALID,3,VALID,0,
2009-02-28, 03:37:04,VALID,1006.59,VALID,0,VALID,93.7358,VALID,0,VALID,23.4017,VALID,3,VALID,0,
2009-02-28, 03:38:04,VALID,1006.58,VALID,0,VALID,93.751,VALID,0,VALID,23.361,VALID,3,VALID,0,
2009-02-28, 03:39:04,VALID,1006.59,VALID,0,VALID,93.7281,VALID,0,VALID,23.361,VALID,3,VALID,0,
2009-02-28, 03:40:04,VALID,1006.56,VALID,0,VALID,93.7281,VALID,0,VALID,23.3628,VALID,3,VALID,0,
2009-02-28, 03:41:04,VALID,1006.56,VALID,0,VALID,93.7358,VALID,0,VALID,23.3628,VALID,3,VALID,0,
2009-02-28, 03:42:04,VALID,1006.53,VALID,0,VALID,93.7434,VALID,0,VALID,23.3628,VALID,3,VALID,0,
2009-02-28, 03:43:04,VALID,1006.51,VALID,0,VALID,93.7434,VALID,0,VALID,23.322,VALID,3,VALID,0,
2009-02-28, 03:44:04,VALID,1006.51,VALID,0,VALID,93.7586,VALID,0,VALID,23.3433,VALID,3,VALID,0,
2009-02-28, 03:45:04,VALID,1006.5,VALID,0,VALID,93.7586,VALID,0,VALID,23.322,VALID,3,VALID,0,
2009-02-28, 03:46:04,VALID,1006.49,VALID,0,VALID,93.7434,VALID,0,VALID,23.3026,VALID,3,VALID,0,
2009-02-28, 03:47:04,VALID,1006.51,VALID,0,VALID,93.751,VALID,0,VALID,23.3026,VALID,3,VALID,0,
2009-02-28, 03:48:04,VALID,1006.48,VALID,0,VALID,93.751,VALID,0,VALID,23.3026,VALID,29,VALID,0,
2009-02-28, 03:49:04,VALID,1006.5,VALID,0,VALID,93.7586,VALID,0,VALID,23.3043,VALID,32,VALID,0,
2009-02-28, 03:50:04,VALID,1006.49,VALID,0,VALID,93.7663,VALID,0,VALID,23.2831,VALID,32,VALID,0,
2009-02-28, 03:51:04,VALID,1006.47,VALID,0,VALID,93.7891,VALID,0,VALID,23.2831,VALID,32,VALID,0,
2009-02-28, 03:52:04,VALID,1006.48,VALID,0,VALID,93.7968,VALID,0,VALID,23.3043,VALID,32,VALID,0,
2009-02-28, 03:53:04,VALID,1006.5,VALID,0,VALID,93.812,VALID,0,VALID,23.2831,VALID,32,VALID,0,
2009-02-28, 03:54:04,VALID,1006.48,VALID,0,VALID,93.8349,VALID,0,VALID,23.2831,VALID,32,VALID,0,
2009-02-28, 03:55:04,VALID,1006.48,VALID,0,VALID,93.8044,VALID,0,VALID,23.2831,VALID,32,VALID,0,
2009-02-28, 03:56:04,VALID,1006.48,VALID,0,VALID,93.8273,VALID,0,VALID,23.2848,VALID,32,VALID,0,
2009-02-28, 03:57:04,VALID,1006.49,VALID,0,VALID,93.8349,VALID,0,VALID,23.2636,VALID,32,VALID,0,
2009-02-28, 03:58:04,VALID,1006.51,VALID,0,VALID,93.8196,VALID,0,VALID,23.2441,VALID,32,VALID,0,
2009-02-28, 03:59:04,VALID,1006.5,VALID,0,VALID,93.8044,VALID,0,VALID,23.2459,VALID,32,VALID,0,
2009-02-28, 04:00:04,VALID,1006.49,VALID,0,VALID,93.8273,VALID,0,VALID,23.2459,VALID,32,VALID,0,
2009-02-28, 04:01:04,VALID,1006.49,VALID,0,VALID,93.812,VALID,0,VALID,23.2459,VALID,32,VALID,0,